Location: Rochester
(43.1610°N, 77.6109°W)
Time: 10:21:21
(UTC-04:00)

Envisat - Visible Passes

Search period start: 22 October 2019 00:00
Search period end: 01 November 2019 00:00
Orbit: 764 x 766 km, 98.1° (Epoch: 22 October)

Date Brightness Start Highest point End Pass type
(mag) Time Alt. Az. Time Alt. Az. Time Alt. Az.
22 Oct 3.0 18:57:14 10° SSE 19:02:15 66° ENE 19:07:19 10° N visible
22 Oct 6.0 20:38:50 10° SW 20:41:45 15° W 20:44:40 10° NW visible
23 Oct 4.8 20:00:06 10° SSW 20:04:38 33° W 20:09:13 10° NNW visible
24 Oct 3.3 19:22:41 10° S 19:27:44 73° WSW 19:32:50 10° NNW visible
25 Oct 3.1 18:46:07 10° SSE 18:51:02 52° ENE 18:55:58 10° N visible
25 Oct 5.6 20:26:46 10° SW 20:30:22 19° W 20:33:58 10° NW visible
26 Oct 6.1 06:55:08 10° NE 06:58:23 17° E 07:01:37 10° SE visible
26 Oct 4.3 19:48:32 10° SSW 19:53:19 41° W 19:58:08 10° NNW visible
27 Oct 3.0 19:11:23 10° SSE 19:16:28 90° ENE 19:21:34 10° NNW visible
27 Oct 6.3 20:55:05 10° W 20:56:11 11° W 20:57:17 10° WNW visible
28 Oct 3.4 18:35:04 10° SE 18:39:49 42° ENE 18:44:36 10° N visible
28 Oct 5.3 20:14:55 10° SSW 20:18:59 24° W 20:23:06 10° NW visible
29 Oct 6.3 06:44:36 10° ENE 06:46:59 13° E 06:49:21 10° ESE visible
29 Oct 3.8 19:37:04 10° S 19:42:00 52° W 19:46:59 10° NNW visible
30 Oct 2.9 19:00:10 10° SSE 19:05:13 72° ENE 19:10:18 10° N visible
30 Oct 6.0 20:42:11 10° WSW 20:44:46 14° W 20:47:21 10° WNW visible
31 Oct 5.9 07:08:45 10° NE 07:12:46 23° E 07:16:46 10° SE visible
31 Oct 3.6 18:24:05 10° SE 18:28:37 34° ENE 18:33:10 10° N visible
31 Oct 4.9 20:03:12 10° SSW 20:07:38 30° W 20:12:06 10° NW visible
